RH
98 95 90 84 82 83 83 86 87 84 76 69 65 61 58 55 53 52 49 45 42 36 31 25 20 16 14 13 13 15 20 26 31 36 40 40 36 35 33 30 31 30
94 86 79 74 75 79 83 86 90 92 88 82 75 70 66 63 61 59 56 53 53 50 46 43 39 33 26 20 16 13 13 16 21 26 32 38 39 38 36 34 33 31
86 82 79 76 76 79 82 86 91 96 97 93 86 79 73 70 68 66 63 62 62 59 55 54 57 57 49 38 29 21 16 13 14 18 21 27 33 37 38 36 35 34
76 77 76 74 74 76 79 85 93 99 100 100 98 89 81 78 77 75 74 74 71 66 63 62 64 69 66 56 45 34 26 19 14 14 16 18 23 28 34 36 36 37
63 66 67 68 68 69 75 84 94 101 103 104 104 98 88 84 83 83 83 83 79 74 72 68 66 71 71 64 56 47 40 32 24 18 15 15 17 20 24 30 34 35
54 55 57 60 61 64 73 82 90 99 101 101 104 103 98 92 87 88 89 89 87 82 77 71 67 70 73 66 60 56 50 43 36 28 21 17 15 17 18 22 29 33
48 50 51 51 54 61 68 74 85 95 96 98 104 106 104 99 92 89 90 91 91 86 77 70 68 73 75 70 63 60 57 51 44 37 29 22 17 17 18 19 21 27
45 48 51 48 48 56 63 68 80 91 96 101 105 104 104 105 99 91 88 90 91 88 80 71 71 77 81 78 71 64 60 57 53 47 39 32 25 19 18 19 21 24
54 51 53 50 49 54 59 64 75 88 97 99 98 98 103 107 104 95 88 89 91 90 85 78 78 85 88 88 85 76 67 63 61 58 52 45 38 29 22 20 20 22
70 63 56 53 53 52 54 60 71 83 91 91 92 98 104 106 106 100 89 86 89 90 89 88 87 89 90 89 89 87 79 72 69 65 60 56 50 42 34 26 21 20
76 74 65 59 54 51 53 60 68 74 79 86 95 101 104 104 106 103 93 85 86 91 94 94 93 91 92 94 96 99 94 85 79 75 70 65 59 53 46 37 27 21
75 75 73 69 57 50 54 61 64 65 68 80 96 101 102 104 103 103 102 94 87 91 96 97 96 93 94 98 101 105 106 100 92 86 82 78 73 67 60 50 38 27
76 73 73 74 65 54 54 60 62 61 63 75 90 94 94 98 101 102 105 99 87 85 89 92 94 93 93 97 99 101 105 106 103 97 92 89 86 82 74 62 50 39
79 73 69 73 74 64 57 60 63 62 62 68 78 84 84 89 98 102 104 102 95 88 84 83 84 86 87 91 95 98 100 103 105 104 100 98 96 94 89 79 65 51
83 76 68 72 78 70 58 59 62 60 58 61 70 81 83 83 90 98 102 104 103 99 92 84 80 81 81 83 87 92 95 100 104 104 102 101 101 99 97 91 80 65
86 82 74 73 79 74 63 62 65 62 60 64 72 81 86 83 85 92 100 103 104 104 102 95 88 86 84 82 82 85 88 92 98 102 103 102 101 99 97 96 90 80
92 90 83 80 85 83 73 67 66 65 64 69 77 85 90 90 85 86 93 98 100 102 104 103 100 98 93 85 80 80 82 84 89 96 100 101 100 99 98 97 95 90
100 99 94 91 93 92 82 71 66 67 70 76 84 92 97 94 87 85 88 92 96 99 101 104 104 102 99 92 85 81 82 85 89 93 97 102 102 101 101 100 98 96
103 105 103 98 97 97 92 83 76 77 82 88 95 101 103 96 88 86 88 90 92 93 95 99 103 104 103 100 96 92 87 86 89 92 96 102 104 101 100 101 101 100
101 104 105 102 101 102 101 98 95 94 97 100 102 105 104 100 96 95 95 95 95 95 97 99 102 104 104 102 101 99 94 90 91 94 96 101 104 102 100 100 101 101
100 102 104 104 103 102 101 101 100 100 101 101 102 104 104 102 100 98 97 96 96 98 100 100 101 102 102 101 100 100 99 97 97 97 99 102 104 102 100 100 100 100
100 100 100 101 101 101 100 100 100 100 100 99 100 102 101 99 98 97 97 98 98 99 99 98 98 99 99 99 100 100 100 100 100 100 101 103 104 102 102 102 101 100
100 101 101 101 101 100 99 100 100 100 100 100 101 101 100 99 97 95 95 95 97 98 99 100 101 102 102 102 101 101 100 100 100 100 100 100 100 100 100 100 99 100
102 102 101 100 101 101 102 102 101 100 98 94 89 83 78 73 69 67 67 67 68 70 73 76 81 86 90 93 95 97 98 99 99 100 102 104 105 105 104 104 102 101
101 101 102 102 101 99 96 90 83 77 69 62 58 53 51 50 50 51 50 48 47 47 47 47 48 50 53 56 58 59 62 65 68 70 73 76 80 83 88 93 96 98
101 99 93 87 81 76 71 65 61 60 58 57 56 53 51 50 48 47 48 48 48 49 49 49 47 45 44 42 40 37 36 35 35 35 36 38 40 43 47 52 58 63
Wind_Speed
29 30 31 30 30 30 30 31 33 35 37 38 39 40 41 42 43 44 44 45 45 46 49 54 60 66 73 81 88 95 102 105 107 107 107 108 109 109 107 105 103 102
30 30 30 29 28 28 29 30 31 34 36 38 39 40 40 41 42 43 42 42 41 41 42 44 48 53 59 66 73 81 90 98 103 106 107 108 109 110 109 107 105 103
30 30 30 29 28 27 27 27 28 30 33 36 38 39 40 40 42 42 41 41 40 40 39 39 41 44 49 54 60 67 75 83 92 99 103 105 107 109 110 110 108 106
30 30 30 30 28 27 26 25 26 27 30 33 35 38 39 40 41 42 42 41 41 41 40 38 38 41 44 48 52 57 62 67 75 85 93 99 103 106 108 110 110 109
31 31 30 30 29 27 25 25 26 27 28 30 33 35 37 39 41 42 42 42 42 41 41 39 38 39 42 44 47 50 53 56 61 69 78 87 94 99 103 107 109 110
32 32 31 30 29 27 26 25 25 26 27 28 29 32 35 38 40 41 42 42 42 41 40 38 37 37 39 40 42 43 46 49 52 57 63 72 80 87 94 100 105 107
35 33 32 31 28 27 26 25 24 25 26 25 26 29 33 36 38 40 41 41 41 40 38 37 35 35 36 37 36 37 40 43 46 49 53 58 66 73 80 88 95 101
37 35 34 32 29 28 27 25 24 24 24 24 25 27 30 34 36 38 39 39 39 39 37 34 33 33 33 34 33 33 35 38 41 43 45 48 53 60 68 76 83 91
36 35 34 33 30 29 28 25 24 24 24 25 25 25 27 31 34 37 38 38 38 37 35 32 30 30 30 31 31 31 32 33 35 38 40 41 44 48 56 66 74 81
37 34 33 33 31 30 28 26 24 24 24 24 23 23 24 27 31 35 37 37 37 36 34 31 29 28 28 29 30 30 31 31 31 33 35 38 39 41 47 55 65 73
38 35 32 31 31 30 28 26 25 24 24 23 23 23 24 24 27 32 35 35 35 34 33 32 30 28 27 26 26 28 30 31 30 30 30 32 35 37 41 46 54 63
38 36 32 30 30 29 28 27 26 25 23 22 23 23 24 24 25 28 31 33 34 34 34 33 32 30 28 26 26 26 28 30 31 30 29 29 30 32 35 40 46 53
36 36 32 29 27 27 26 26 27 25 23 23 24 24 24 24 24 25 28 32 34 35 34 34 33 32 30 28 27 26 26 28 29 31 31 30 29 28 30 33 38 44
32 34 32 28 25 24 24 25 26 26 24 24 25 24 23 23 23 24 26 29 31 33 35 35 34 33 31 29 28 27 27 26 28 29 30 30 30 29 29 29 32 37
29 31 30 26 23 22 22 23 25 25 24 24 24 23 23 23 23 24 24 25 27 30 32 34 34 33 32 31 30 29 28 27 27 27 28 28 29 30 30 29 29 32
24 26 26 24 22 20 20 21 23 23 22 22 22 22 22 22 23 24 23 23 24 26 29 31 32 32 33 33 32 31 30 29 27 27 27 27 28 29 30 29 29 29
18 20 21 21 20 18 18 20 21 21 21 22 22 22 22 23 23 24 24 24 24 24 25 27 29 31 32 34 34 33 32 30 29 28 27 27 27 28 28 29 29 29
12 14 16 17 17 16 17 19 20 21 21 22 22 22 23 23 23 24 24 24 23 23 24 25 26 29 32 33 34 34 33 32 31 30 29 28 27 27 28 28 29 29
5 8 11 13 13 13 15 18 19 20 21 21 22 23 23 23 23 23 23 23 23 23 23 24 25 27 30 32 33 34 34 34 33 32 31 29 28 28 29 29 30 30
1 3 5 7 9 10 12 15 17 18 19 20 21 22 21 21 21 21 22 22 22 22 22 22 23 25 28 31 33 34 35 34 34 33 32 31 30 30 31 31 32 32
3 1 1 3 5 6 8 10 12 14 16 17 17 17 17 17 17 18 19 19 19 19 20 21 21 22 24 27 30 32 33 33 33 33 32 31 31 32 32 33 34 34
6 4 3 2 1 2 4 6 8 9 10 11 11 11 11 11 12 12 12 13 13 14 16 17 19 19 20 23 26 29 31 32 32 31 31 31 32 33 33 34 35 35
9 7 6 4 3 1 1 2 3 4 4 5 6 6 7 7 8 8 9 9 10 11 13 14 15 17 18 20 23 26 28 29 30 31 31 31 32 33 34 34 35 36
11 10 8 7 5 4 3 2 1 0 1 2 3 4 4 4 4 5 6 7 8 10 11 12 14 16 18 20 21 23 25 27 28 29 29 29 30 31 32 33 34 36
13 12 10 8 7 6 5 4 3 2 2 1 0 0 1 1 2 3 4 4 5 6 7 9 10 12 14 16 17 19 21 22 24 25 25 27 28 29 31 33 34 35
13 12 11 10 9 8 8 7 6 6 5 4 3 2 2 1 2 3 4 5 6 7 8 9 11 11 12 14 15 16 17 19 20 21 23 25 26 28 30 32 33 35
Wind_Direction
267 266 264 262 260 258 255 253 253 253 253 252 251 251 250 250 250 250 250 249 249 247 245 243 243 242 241 239 238 236 236 236 236 236 236 237 238 239 238 237 236 236
269 268 267 265 261 258 255 253 253 254 255 254 253 251 250 250 250 251 251 252 251 250 248 246 244 243 242 241 240 238 236 235 236 236 236 235 236 237 238 237 236 236
269 270 270 268 264 261 258 257 258 258 256 255 254 253 251 249 250 251 253 254 254 254 252 249 247 246 245 243 242 241 239 237 236 236 236 235 235 235 236 237 236 236
269 269 269 268 265 261 259 260 262 264 261 258 256 254 252 250 250 251 253 254 255 256 255 253 250 248 247 246 245 244 242 240 238 237 236 236 235 234 234 235 236 236
269 267 266 267 266 263 262 263 264 264 264 261 257 255 253 251 250 251 253 254 255 256 257 256 252 248 247 247 247 246 246 244 242 239 238 237 236 235 233 233 234 235
270 267 266 266 265 264 263 262 261 262 262 261 258 257 254 252 251 251 252 253 255 257 257 256 253 248 246 247 247 247 246 245 245 243 240 238 237 236 234 233 232 234
271 268 267 266 264 264 262 261 261 261 262 263 261 258 255 253 251 250 251 252 254 256 257 256 252 247 245 245 246 247 246 245 245 245 243 240 238 236 235 234 233 232
272 269 267 266 264 264 262 261 262 262 262 263 261 256 254 253 251 249 250 251 253 256 257 256 253 248 246 245 245 246 247 246 245 246 245 243 240 236 234 233 232 232
272 269 266 264 263 262 261 261 261 262 262 262 260 258 255 252 250 249 249 250 252 254 256 257 255 252 248 245 243 244 246 248 247 247 246 245 243 239 235 232 231 230
274 269 264 262 261 259 259 260 260 260 260 261 262 261 259 255 252 250 249 249 251 253 255 257 256 254 251 247 245 243 244 247 248 247 245 245 244 242 238 234 231 229
273 270 264 260 258 257 257 258 259 258 258 261 262 261 260 258 254 251 250 249 250 251 253 255 256 256 254 252 249 247 245 246 248 247 245 243 243 243 240 237 233 230
267 266 264 260 256 255 255 256 257 257 258 260 261 260 260 258 255 252 250 248 247 247 249 251 254 255 255 254 251 248 246 246 247 248 247 245 244 243 242 240 236 232
262 260 260 258 255 253 252 252 254 256 257 257 258 258 257 257 257 253 250 247 245 245 246 247 249 252 253 252 252 250 247 246 246 247 248 248 247 246 245 243 239 234
258 255 254 253 254 252 249 248 251 253 252 251 254 257 257 258 257 255 252 249 247 246 246 247 248 250 251 251 251 250 249 246 245 245 245 247 248 247 247 245 241 236
256 252 249 248 250 249 246 246 248 250 250 250 254 258 260 260 258 257 255 251 248 246 246 247 248 249 250 251 250 250 250 248 246 244 244 244 246 246 246 245 242 238
257 250 245 243 245 246 244 245 248 250 250 251 255 260 264 264 259 256 254 251 248 246 245 246 246 246 248 250 251 251 250 250 248 246 244 243 243 244 245 245 244 240
258 248 241 239 243 244 242 243 247 249 249 251 257 262 266 266 261 255 252 251 250 248 247 246 246 245 244 246 249 251 251 252 251 249 246 244 243 244 245 246 245 242
259 242 233 235 241 243 240 241 244 247 250 254 259 264 266 265 260 254 252 250 250 249 248 245 244 243 242 243 246 248 250 250 251 250 249 248 246 245 245 245 246 244
255 232 228 234 242 243 241 242 245 249 253 257 261 264 265 262 257 255 254 253 252 251 249 245 242 240 239 239 241 244 246 247 248 249 249 249 248 247 246 246 245 245
338 230 230 236 241 244 245 245 247 251 254 258 261 262 262 259 257 256 257 257 256 253 250 246 242 240 238 237 238 241 244 246 247 247 248 248 247 246 246 246 245 245
38 62 217 229 232 237 241 243 246 250 254 258 260 262 261 261 260 260 259 258 255 251 248 244 241 239 238 237 238 240 243 245 247 248 248 248 248 247 246 246 246 246
61 72 86 109 167 210 228 239 248 254 258 263 264 264 263 261 260 260 258 256 252 249 247 244 239 236 235 234 235 237 241 244 246 247 247 247 247 247 246 246 246 246
64 68 72 76 83 104 195 237 252 258 262 264 261 258 258 257 257 256 253 250 247 244 243 241 237 233 230 229 230 233 237 240 242 244 243 243 243 244 244 244 244 244
61 67 72 75 79 82 85 96 113 185 235 248 251 249 246 241 242 243 243 244 243 243 242 239 236 234 233 232 233 234 237 239 241 244 244 244 244 244 245 245 244 244
67 71 76 79 81 82 79 80 83 84 86 87 90 177 188 205 222 231 237 241 243 246 246 243 240 239 239 239 239 240 242 243 245 246 246 246 245 244 244 245 244 245
67 69 71 73 76 77 75 74 71 67 65 61 54 42 17 335 295 279 276 278 276 268 262 256 251 248 246 245 246 247 247 247 246 245 244 243 243 243 243 243 244 245